Massena, NY

5:27 PM EDT on September 16, 2019 (GMT -0400)
Massena International-Richards

Weather History for KMSS - July, 2019

Change the Weather History Date:

Tuesday, July 16, 2019

  Actual Average Record
Temperature  
Mean Temperature 71 °F 69 °F  
Max Temperature 87 °F 80 °F 94 °F (2018)
Min Temperature 55 °F 58 °F 45 °F (1989)
Degree Days  
Heating Degree Days 0 1  
Month to date heating degree days 0 16  
Since 1 June heating degree days 97 112  
Since 1 July heating degree days 0 16  
Cooling Degree Days 6 5  
Month to date cooling degree days 112 77  
Year to date cooling degree days 171 166  
Since 1 June cooling degree days 170 152  
Growing Degree Days 21 (Base 50)    
Moisture  
Dew Point 63 °F    
Average Humidity 74    
Maximum Humidity 93    
Minimum Humidity 55    
Precipitation  
Precipitation 0.00 in 0.11 in 0.93 in (2004)
Month to date precipitation 0.92 1.78  
Year to date precipitation 15.41 17.23  
Sea Level Pressure  
Sea Level Pressure 29.93 in    
Wind  
Wind Speed 9 mph (SSW)    
Max Wind Speed 21 mph    
Max Gust Speed 27 mph    
Visibility 10 miles    
Events      
T = Trace of Precipitation, MM = Missing Value Source: NWS Daily Summary

Daily Weather History Graph

Daily Weather History Graph

Search for Another Location

Airport or City:

Astronomy

Jul. 16, 2019 Rise Set
Actual Time 5:27 AM EDT 8:42 PM EDT
Civil Twilight 4:52 AM EDT 9:18 PM EDT
Nautical Twilight 4:05 AM EDT 10:04 PM EDT
Astronomical Twilight 3:08 AM EDT 11:01 PM EDT
Moon 8:47 PM EDT 5:02 AM EDT
Length of Visible Light 16h 25m
Length of Day
15h 14m
Full, 100% of the Moon is Illuminated
Jul 16
Full
Jul 16
Full
Jul 24
Last Quarter
Jul 31
New
Aug 7
First Quarter

Hourly Weather History & Observations

Time (EDT) Temp. Heat Index Dew Point Humidity Pressure Visibility Wind Dir Wind Speed Gust Speed Precip Events Conditions
12:53 AM 63.0 °F - 57.0 °F 81% 30.04 in 10.0 mi Calm Calm - N/A   Clear
1:53 AM 62.1 °F - 55.9 °F 80% 30.03 in 10.0 mi Calm Calm - N/A   Clear
2:53 AM 59.0 °F - 55.9 °F 90% 30.01 in 10.0 mi Calm Calm - N/A   Clear
3:53 AM 57.9 °F - 55.0 °F 90% 30.01 in 10.0 mi Calm Calm - N/A   Clear
4:53 AM 55.9 °F - 54.0 °F 93% 30.01 in 10.0 mi Calm Calm - N/A   Clear
5:53 AM 55.9 °F - 54.0 °F 93% 30.01 in 10.0 mi Calm Calm - N/A   Clear
6:53 AM 64.0 °F - 57.9 °F 80% 29.99 in 10.0 mi South 3.5 mph - N/A   Mostly Cloudy
7:53 AM 68.0 °F - 59.0 °F 73% 29.98 in 10.0 mi South 4.6 mph - N/A   Mostly Cloudy
8:53 AM 71.1 °F - 60.1 °F 68% 29.96 in 10.0 mi South 4.6 mph - N/A   Clear
9:53 AM 73.0 °F - 60.1 °F 64% 29.95 in 10.0 mi South 5.8 mph - N/A   Overcast
10:53 AM 75.9 °F - 62.1 °F 62% 29.94 in 10.0 mi SSW 8.1 mph - N/A   Overcast
11:53 AM 77.0 °F - 63.0 °F 62% 29.94 in 10.0 mi SW 11.5 mph - N/A   Mostly Cloudy
12:53 PM 81.0 °F 83.3 °F 66.9 °F 62% 29.92 in 10.0 mi SSW 15.0 mph 21.9 mph N/A   Clear
1:53 PM 81.0 °F 83.8 °F 68.0 °F 65% 29.90 in 10.0 mi SW 15.0 mph - N/A   Unknown
2:53 PM 84.0 °F 87.8 °F 69.1 °F 61% 29.88 in 10.0 mi SW 13.8 mph 26.5 mph N/A   Clear
3:53 PM 87.1 °F 91.3 °F 69.1 °F 55% 29.88 in 10.0 mi SW 18.4 mph 24.2 mph N/A   Clear
4:53 PM 86.0 °F 90.7 °F 70.0 °F 59% 29.86 in 10.0 mi SSW 18.4 mph 23.0 mph N/A   Clear
5:53 PM 84.0 °F 87.8 °F 69.1 °F 61% 29.84 in 10.0 mi SSW 13.8 mph - N/A   Partly Cloudy
6:53 PM 86.0 °F 90.1 °F 69.1 °F 57% 29.83 in 10.0 mi SW 11.5 mph - N/A   Clear
7:53 PM 82.9 °F 85.4 °F 66.9 °F 58% 29.84 in 10.0 mi SW 15.0 mph 24.2 mph N/A   Clear
8:53 PM 82.0 °F 84.1 °F 66.0 °F 58% 29.84 in 10.0 mi SW 11.5 mph - N/A   Mostly Cloudy
9:53 PM 80.1 °F 82.1 °F 66.0 °F 62% 29.87 in 10.0 mi SW 15.0 mph 23.0 mph N/A   Partly Cloudy
10:53 PM 78.1 °F - 66.9 °F 68% 29.87 in 10.0 mi SW 13.8 mph 23.0 mph N/A   Scattered Clouds
11:53 PM 77.0 °F - 68.0 °F 74% 29.88 in 10.0 mi SW 11.5 mph 19.6 mph N/A   Mostly Cloudy